OK2ARM-12 Weather Reports


time (UTC)temp
C
wind
direction
speed
KPH
gust
KPH
rain 1hr
cm
rain 24hr
cm
rain mn
cm
humidity
%
barometer
mb
20260905195041 15 0.0 0.0 0.00 0.00 0.00 57 1022.7
20260905194041 15 0.0 0.0 0.00 0.00 0.00 57 1022.5
20260905193041 15 0.0 0.0 0.00 0.00 0.00 57 1022.4
20260905192041 15 0.0 0.0 0.00 0.00 0.00 56 1022.4
20260905185817 15 0.0 0.0 0.00 0.00 0.00 57 1022.3
20260905184817 15 0.0 0.0 0.00 0.00 0.00 57 1022.1
20260905183817 16 0.0 0.0 0.00 0.00 0.00 56 1021.8
20260905182817 16 0.0 0.0 0.00 0.00 0.00 55 1021.7
20260905181817 16 0.0 0.0 0.00 0.00 0.00 54 1021.4
20260905174330 17 0.0 0.0 0.00 0.00 0.00 53 1020.9
20260905173330 17 0.0 0.0 0.00 0.00 0.00 52 1020.8
20260905171106 18 0.0 0.0 0.00 0.00 0.00 49 1020.6
20260905170107 18 0.0 0.0 0.00 0.00 0.00 48 1020.5
20260905163843 18 0.0 0.0 0.00 0.00 0.00 46 1020.3
20260905162843 18 0.0 0.0 0.00 0.00 0.00 46 1020.3
20260905161843 18 0.0 0.0 0.00 0.00 0.00 49 1020.3
20260905160843 18 0.0 0.0 0.00 0.00 0.00 50 1020.0
20260905155843 18 0.0 0.0 0.00 0.00 0.00 50 1020.0
20260905153619 19 0.0 0.0 0.00 0.00 0.00 47 1019.9
20260905152620 18 0.0 0.0 0.00 0.00 0.00 46 1020.1
20260905151619 19 0.0 0.0 0.00 0.00 0.00 45 1020.0
20260905150619 18 0.0 0.0 0.00 0.00 0.00 46 1020.0
20260905145619 18 0.0 0.0 0.00 0.00 0.00 44 1019.9
20260905144619 18 0.0 0.0 0.00 0.00 0.00 45 1020.0
20260905143619 18 0.0 0.0 0.00 0.00 0.00 47 1019.9
20260905142619 18 0.0 0.0 0.00 0.00 0.00 46 1020.1
20260905141619 18 0.0 0.0 0.00 0.00 0.00 44 1020.1
20260905140619 19 0.0 0.0 0.00 0.00 0.00 45 1020.2
20260905135619 18 0.0 0.0 0.00 0.00 0.00 48 1020.4
20260905133355 18 0.0 0.0 0.00 0.00 0.00 48 1020.4
20260905131132 19 0.0 0.0 0.00 0.00 0.00 44 1020.4
20260905130132 18 0.0 0.0 0.00 0.00 0.00 46 1020.4
20260905125132 19 0.0 0.0 0.00 0.00 0.00 46 1020.5
20260905124132 20 0.0 0.0 0.00 0.00 0.00 44 1020.4
20260905123131 19 0.0 0.0 0.00 0.00 0.00 47 1020.4
20260905120908 18 0.0 0.0 0.00 0.00 0.00 45 1020.5
20260905114648 18 0.0 0.0 0.00 0.00 0.00 50 1020.6
20260905113645 17 0.0 0.0 0.00 0.00 0.00 48 1020.7
20260905112645 18 0.0 0.0 0.00 0.00 0.00 49 1020.7
20260905111644 17 0.0 0.0 0.00 0.00 0.00 52 1020.6
20260905105421 16 0.0 0.0 0.00 0.00 0.00 54 1020.5
20260905104421 17 0.0 0.0 0.00 0.00 0.00 54 1020.3
20260905102157 16 0.0 0.0 0.00 0.00 0.00 58 1020.6
20260905095934 16 0.0 0.0 0.00 0.00 0.00 62 1020.7
20260905093706 15 0.0 0.0 0.00 0.00 0.00 65 1020.8
20260905091443 15 0.0 0.0 0.00 0.00 0.00 68 1020.8
20260905090443 15 0.0 0.0 0.00 0.00 0.00 70 1020.8
20260905082955 13 0.0 0.0 0.00 0.00 0.00 81 1020.7
20260905081955 13 0.0 0.0 0.00 0.00 0.00 84 1020.9
20260905080955 13 0.0 0.0 0.00 0.00 0.00 85 1020.6
20260905075955 13 0.0 0.0 0.00 0.00 0.00 84 1020.4
20260905074955 12 0.0 0.0 0.00 0.00 0.00 85 1020.2
20260905073955 12 0.0 0.0 0.00 0.00 0.00 86 1020.1
20260905072955 12 0.0 0.0 0.00 0.00 0.00 87 1019.8
20260905071955 12 0.0 0.0 0.00 0.00 0.00 89 1019.6
20260905070955 12 0.0 0.0 0.00 0.00 0.00 90 1019.2
20260905065955 11 0.0 0.0 0.00 0.00 0.00 91 1019.5
20260905064955 11 0.0 0.0 0.00 0.00 0.00 91 1019.7
20260905063955 11 0.0 0.0 0.00 0.00 0.00 91 1019.6
20260905062955 11 0.0 0.0 0.00 0.00 0.00 91 1019.8
20260905061955 11 0.0 0.0 0.00 0.00 0.00 91 1019.6
20260905060955 11 0.0 0.0 0.00 0.00 0.00 90 1019.7
20260905055955 11 0.0 0.0 0.00 0.00 0.00 90 1019.4
20260905052506 11 0.0 0.0 0.00 0.00 0.00 86 1019.9
20260905050241 12 0.0 0.0 0.00 0.00 0.00 85 1019.1
20260905045242 12 0.0 0.0 0.00 0.00 0.00 86 1019.1
20260905044242 12 0.0 0.0 0.00 0.00 0.00 87 1019.0
20260905043242 12 0.0 0.0 0.00 0.00 0.00 87 1018.8
20260905042242 12 0.0 0.0 0.00 0.00 0.00 87 1018.9
20260905041242 12 0.0 0.0 0.00 0.00 0.00 88 1018.5
20260905040242 12 0.0 0.0 0.00 0.00 0.00 88 1018.2
20260905035242 12 0.0 0.0 0.00 0.00 0.00 89 1018.1
20260905034242 13 0.0 0.0 0.00 0.00 0.00 88 1018.1
20260905033242 13 0.0 0.0 0.00 0.00 0.00 88 1018.1
20260905032242 13 0.0 0.0 0.00 0.00 0.00 88 1017.5
20260905030018 13 0.0 0.0 0.00 0.00 0.00 84 1018.0
20260905025018 14 0.0 0.0 0.00 0.00 0.00 84 1017.8
20260905024018 14 0.0 0.0 0.00 0.00 0.00 82 1017.4
20260905023018 14 0.0 0.0 0.00 0.00 0.00 81 1016.9
20260905022018 14 0.0 0.0 0.00 0.00 0.00 79 1016.7
20260905021018 15 0.0 0.0 0.00 0.00 0.00 75 1016.9
20260905020018 15 0.0 0.0 0.00 0.00 0.00 72 1016.9
20260905015018 15 0.0 0.0 0.00 0.00 0.00 71 1016.4
20260905012753 16 0.0 0.0 0.00 0.00 0.00 68 1016.5
20260905011753 16 0.0 0.0 0.00 0.00 0.00 67 1016.6
20260905010753 16 0.0 0.0 0.00 0.00 0.00 67 1016.4
20260905005753 16 0.0 0.0 0.00 0.00 0.00 68 1016.5
20260905004754 16 0.0 0.0 0.00 0.00 0.00 68 1016.3
20260905003754 17 0.0 0.0 0.00 0.00 0.00 67 1016.2
20260905002754 17 0.0 0.0 0.00 0.00 0.00 63 1015.3
20260905001755 19 0.0 0.0 0.00 0.00 0.00 58 1014.7
20260905000754 21 0.0 0.0 0.00 0.00 0.00 54 1013.9
20260904235754 21 0.0 0.0 0.00 0.00 0.00 53 1013.6
20260904234753 21 0.0 0.0 0.00 0.00 0.00 52 1013.7
20260904233754 21 0.0 0.0 0.00 0.00 0.00 52 1013.6
20260904232753 21 0.0 0.0 0.00 0.00 0.00 51 1013.6
20260904231754 21 0.0 0.0 0.00 0.00 0.00 50 1013.6
20260904225530 21 0.0 0.0 0.00 0.00 0.00 49 1013.4
20260904224530 21 0.0 0.0 0.00 0.00 0.00 49 1013.4
20260904223529 21 0.0 0.0 0.00 0.00 0.00 49 1013.4
20260904222530 21 0.0 0.0 0.00 0.00 0.00 49 1013.5
20260904221530 21 0.0 0.0 0.00 0.00 0.00 49 1013.6
20260904220530 21 0.0 0.0 0.00 0.00 0.00 49 1013.4
20260904213043 21 0.0 0.0 0.00 0.00 0.00 48 1013.3
20260904210819 21 0.0 0.0 0.00 0.00 0.00 49 1013.5
20260904205820 21 0.0 0.0 0.00 0.00 0.00 49 1013.4
20260904201109 22 0.0 0.0 0.00 0.00 0.00 47 1013.5
20260904200109 22 0.0 0.0 0.00 0.00 0.00 46 1013.6